TimeCDT,TemperatureF,Dew PointF,Humidity,Sea Level PressureIn,VisibilityMPH,Wind Direction,Wind SpeedMPH,Gust SpeedMPH,PrecipitationIn,Events,Conditions,WindDirDegrees,DateUTC
12:54 AM,59.0,54.0,83,30.01,10.0,South,5.8,-,N/A,,Clear,180,2013-03-31 05:54:00
1:54 AM,57.9,55.0,90,29.99,10.0,South,5.8,-,N/A,,Clear,170,2013-03-31 06:54:00
2:54 AM,57.0,54.0,89,29.99,10.0,South,6.9,-,N/A,,Clear,170,2013-03-31 07:54:00
3:54 AM,57.0,54.0,89,29.97,9.0,South,8.1,-,N/A,,Clear,180,2013-03-31 08:54:00
4:54 AM,55.9,55.0,97,29.97,8.0,South,5.8,-,N/A,,Clear,180,2013-03-31 09:54:00
5:34 AM,57.2,55.4,94,29.97,6.0,South,5.8,-,N/A,,Scattered Clouds,190,2013-03-31 10:34:00
5:43 AM,57.2,55.4,94,29.97,7.0,South,8.1,-,N/A,,Mostly Cloudy,180,2013-03-31 10:43:00
5:54 AM,57.9,57.0,97,29.96,7.0,South,6.9,-,N/A,,Overcast,190,2013-03-31 10:54:00
6:54 AM,60.1,59.0,96,29.97,6.0,SSW,8.1,-,N/A,,Overcast,200,2013-03-31 11:54:00
7:54 AM,62.1,59.0,90,29.98,7.0,SSW,8.1,-,N/A,,Overcast,210,2013-03-31 12:54:00
8:54 AM,63.0,60.1,90,29.98,10.0,SSW,6.9,-,N/A,,Overcast,210,2013-03-31 13:54:00
9:16 AM,64.4,60.8,88,29.98,10.0,SSW,9.2,-,N/A,,Mostly Cloudy,200,2013-03-31 14:16:00
9:54 AM,64.9,60.1,84,29.98,10.0,Calm,Calm,-,N/A,,Overcast,0,2013-03-31 14:54:00
10:23 AM,66.2,59.0,78,29.98,10.0,Calm,Calm,-,N/A,,Overcast,0,2013-03-31 15:23:00
10:54 AM,68.0,61.0,78,29.97,10.0,Calm,Calm,-,N/A,,Overcast,0,2013-03-31 15:54:00
11:54 AM,70.0,60.1,71,29.96,10.0,Variable,5.8,-,N/A,,Overcast,0,2013-03-31 16:54:00
12:06 PM,69.8,60.8,73,29.97,10.0,SW,6.9,-,N/A,,Overcast,230,2013-03-31 17:06:00
12:54 PM,70.0,60.1,71,29.96,10.0,West,6.9,-,N/A,,Overcast,260,2013-03-31 17:54:00
1:54 PM,69.1,62.1,78,29.94,10.0,SW,6.9,-,0.01,,Overcast,220,2013-03-31 18:54:00
2:01 PM,69.8,60.8,73,29.95,10.0,WSW,5.8,-,N/A,,Overcast,240,2013-03-31 19:01:00
2:54 PM,64.9,62.1,90,29.94,5.0,Variable,6.9,-,0.00,Rain,Light Rain,0,2013-03-31 19:54:00
2:57 PM,64.4,62.6,94,29.94,1.8,WNW,6.9,-,0.00,Rain,Heavy Rain,300,2013-03-31 19:57:00
3:04 PM,64.4,62.6,94,29.95,1.2,WSW,3.5,-,0.08,Rain,Rain,240,2013-03-31 20:04:00
3:09 PM,64.4,60.8,88,29.98,2.0,West,16.1,29.9,0.10,Rain,Light Rain,280,2013-03-31 20:09:00
3:11 PM,62.6,60.8,94,29.99,2.0,West,17.3,29.9,0.10,Rain,Heavy Rain,280,2013-03-31 20:11:00
3:13 PM,62.6,57.2,82,29.99,2.0,West,12.7,29.9,0.11,Rain-Thunderstorm,Heavy Thunderstorms and Rain,270,2013-03-31 20:13:00
3:40 PM,59.0,55.4,88,29.98,4.0,NNW,10.4,-,0.22,Rain-Thunderstorm,Thunderstorms and Rain,330,2013-03-31 20:40:00
3:54 PM,59.0,57.0,93,29.96,4.0,NNW,6.9,-,0.27,Rain-Thunderstorm,Thunderstorms and Rain,340,2013-03-31 20:54:00
4:09 PM,59.0,57.2,94,29.95,5.0,Calm,Calm,-,0.03,Rain,Light Rain,0,2013-03-31 21:09:00
4:32 PM,59.0,57.2,94,29.85,10.0,SE,15.0,18.4,0.06,Rain,Light Rain,130,2013-03-31 21:32:00
4:54 PM,59.0,57.0,93,29.86,10.0,SE,5.8,-,0.06,,Clear,140,2013-03-31 21:54:00
5:21 PM,60.8,57.2,88,29.89,10.0,North,4.6,-,N/A,,Scattered Clouds,350,2013-03-31 22:21:00
5:41 PM,60.8,57.2,88,29.90,10.0,Calm,Calm,-,N/A,,Mostly Cloudy,0,2013-03-31 22:41:00
5:54 PM,61.0,57.0,87,29.90,10.0,Calm,Calm,-,N/A,,Mostly Cloudy,0,2013-03-31 22:54:00
6:36 PM,62.6,57.2,82,29.89,10.0,Calm,Calm,-,N/A,,Mostly Cloudy,0,2013-03-31 23:36:00
6:54 PM,61.0,57.0,87,29.88,10.0,Calm,Calm,-,N/A,,Mostly Cloudy,0,2013-03-31 23:54:00
7:22 PM,59.0,55.4,88,29.90,10.0,NW,4.6,-,N/A,,Scattered Clouds,310,2013-04-01 00:22:00
7:54 PM,55.9,54.0,93,29.91,9.0,Calm,Calm,-,N/A,,Clear,0,2013-04-01 00:54:00
8:17 PM,55.4,53.6,94,29.92,1.8,Calm,Calm,-,N/A,,Clear,0,2013-04-01 01:17:00
8:26 PM,53.6,53.6,100,29.92,0.5,Calm,Calm,-,N/A,Fog,Fog,0,2013-04-01 01:26:00
8:38 PM,55.4,53.6,94,29.92,0.5,Calm,Calm,-,N/A,Fog,Fog,0,2013-04-01 01:38:00
8:54 PM,55.9,54.0,93,29.92,0.8,Calm,Calm,-,N/A,,Mist,0,2013-04-01 01:54:00
8:57 PM,55.4,55.4,100,29.93,1.2,Calm,Calm,-,N/A,,Partly Cloudy,0,2013-04-01 01:57:00
9:04 PM,53.6,53.6,100,29.93,5.0,Calm,Calm,-,N/A,,Mostly Cloudy,0,2013-04-01 02:04:00
9:19 PM,53.6,51.8,94,29.94,5.0,Calm,Calm,-,N/A,,Scattered Clouds,0,2013-04-01 02:19:00
9:54 PM,54.0,53.1,97,29.96,5.0,Calm,Calm,-,N/A,,Scattered Clouds,0,2013-04-01 02:54:00
10:54 PM,53.1,52.0,96,29.96,7.0,Calm,Calm,-,N/A,,Scattered Clouds,0,2013-04-01 03:54:00
11:04 PM,53.6,51.8,94,29.97,0.8,Calm,Calm,-,N/A,,Scattered Clouds,0,2013-04-01 04:04:00
11:12 PM,51.8,51.8,100,29.98,0.5,SSW,4.6,-,N/A,Fog,Fog,200,2013-04-01 04:12:00
11:27 PM,53.6,53.6,100,29.97,2.5,Calm,Calm,-,N/A,,Overcast,0,2013-04-01 04:27:00
11:34 PM,55.4,53.6,94,29.97,7.0,Calm,Calm,-,N/A,,Overcast,0,2013-04-01 04:34:00
11:54 PM,55.0,54.0,96,29.96,7.0,Calm,Calm,-,N/A,,Mostly Cloudy,0,2013-04-01 04:54:00